| time (UTC) | temp F | wind direction | speed MPH | gust MPH | rain 1hr in | rain 24hr in | rain mn in | humidity % | barometer mb |
| 20260504151032 | 66 | 266 | 3.0 | 10.0 | 0.00 | 0.00 | 0.00 | 35 | 1011.9 |
| 20260504150534 | 66 | 82 | 3.0 | 11.0 | 0.00 | 0.00 | 0.00 | 35 | 1011.9 |
| 20260504141031 | 63 | 246 | 4.0 | 13.0 | 0.00 | 0.00 | 0.00 | 34 | 1012.1 |
| 20260504140531 | 63 | 242 | 4.0 | 11.0 | 0.00 | 0.00 | 0.00 | 35 | 1012.1 |
| 20260504130533 | 60 | 276 | 3.0 | 9.0 | 0.00 | 0.00 | 0.00 | 42 | 1013.0 |
| 20260504110533 | 42 | 0 | 0.0 | 1.0 | 0.00 | 0.00 | 0.00 | 76 | 1013.3 |
| 20260504100534 | 39 | 0 | 0.0 | 0.0 | 0.00 | 0.00 | 0.00 | 80 | 1013.0 |
| 20260504081537 | 36 | 0 | 0.0 | 0.0 | 0.00 | 0.00 | 0.00 | 85 | 1012.5 |
| 20260504081031 | 36 | 0 | 0.0 | 0.0 | 0.00 | 0.00 | 0.00 | 85 | 1012.6 |
| 20260504080535 | 36 | 0 | 0.0 | 0.0 | 0.00 | 0.00 | 0.00 | 84 | 1012.6 |
| 20260504050533 | 38 | 0 | 0.0 | 0.0 | 0.00 | 0.00 | 0.00 | 77 | 1012.3 |
| 20260504050105 | 38 | 0 | 0.0 | 0.0 | 0.00 | 0.00 | 0.00 | 76 | 1012.2 |
| 20260504045531 | 38 | 0 | 0.0 | 0.0 | 0.00 | 0.00 | 0.00 | 77 | 1012.3 |
| 20260504045032 | 38 | 0 | 0.0 | 0.0 | 0.00 | 0.00 | 0.00 | 77 | 1012.4 |
| 20260504044543 | 38 | 0 | 0.0 | 0.0 | 0.00 | 0.00 | 0.00 | 76 | 1012.4 |
| 20260504044033 | 38 | 0 | 0.0 | 0.0 | 0.00 | 0.00 | 0.00 | 76 | 1012.4 |
| 20260504043533 | 38 | 0 | 0.0 | 0.0 | 0.00 | 0.00 | 0.00 | 76 | 1012.3 |
| 20260504043044 | 38 | 0 | 0.0 | 0.0 | 0.00 | 0.00 | 0.00 | 76 | 1012.3 |
| 20260504042531 | 38 | 0 | 0.0 | 0.0 | 0.00 | 0.00 | 0.00 | 75 | 1012.3 |
| 20260504042033 | 38 | 0 | 0.0 | 0.0 | 0.00 | 0.00 | 0.00 | 74 | 1012.3 |
| 20260504041539 | 39 | 0 | 0.0 | 0.0 | 0.00 | 0.00 | 0.00 | 74 | 1012.3 |
| 20260504041031 | 39 | 0 | 0.0 | 0.0 | 0.00 | 0.00 | 0.00 | 74 | 1012.3 |
| 20260504040532 | 39 | 0 | 0.0 | 0.0 | 0.00 | 0.00 | 0.00 | 74 | 1012.2 |
| 20260504040046 | 39 | 0 | 0.0 | 0.0 | 0.00 | 0.00 | 0.00 | 72 | 1012.3 |
| 20260504035532 | 39 | 0 | 0.0 | 0.0 | 0.00 | 0.00 | 0.00 | 71 | 1012.2 |
| 20260504035034 | 40 | 0 | 0.0 | 0.0 | 0.00 | 0.00 | 0.00 | 71 | 1012.1 |
| 20260504034552 | 40 | 0 | 0.0 | 0.0 | 0.00 | 0.00 | 0.00 | 70 | 1012.1 |
| 20260504034033 | 40 | 0 | 0.0 | 0.0 | 0.00 | 0.00 | 0.00 | 71 | 1012.1 |
| 20260504033531 | 40 | 0 | 0.0 | 0.0 | 0.00 | 0.00 | 0.00 | 71 | 1012.0 |
| 20260504033043 | 40 | 0 | 0.0 | 0.0 | 0.00 | 0.00 | 0.00 | 71 | 1012.0 |
| 20260504032532 | 40 | 0 | 0.0 | 0.0 | 0.00 | 0.00 | 0.00 | 70 | 1011.9 |
| 20260504032033 | 40 | 0 | 0.0 | 0.0 | 0.00 | 0.00 | 0.00 | 70 | 1012.0 |
| 20260504031540 | 41 | 0 | 0.0 | 0.0 | 0.00 | 0.00 | 0.00 | 70 | 1012.0 |
| 20260504031032 | 41 | 0 | 0.0 | 0.0 | 0.00 | 0.00 | 0.00 | 68 | 1012.1 |
| 20260504030531 | 41 | 0 | 0.0 | 0.0 | 0.00 | 0.00 | 0.00 | 67 | 1011.9 |
| 20260504030049 | 42 | 0 | 0.0 | 0.0 | 0.00 | 0.00 | 0.00 | 67 | 1012.0 |
| 20260504025533 | 42 | 0 | 0.0 | 0.0 | 0.00 | 0.00 | 0.00 | 67 | 1011.9 |
| 20260504025031 | 42 | 0 | 0.0 | 0.0 | 0.00 | 0.00 | 0.00 | 65 | 1011.9 |
| 20260504024546 | 42 | 0 | 0.0 | 0.0 | 0.00 | 0.00 | 0.00 | 65 | 1011.9 |
| 20260504024031 | 42 | 0 | 0.0 | 0.0 | 0.00 | 0.00 | 0.00 | 62 | 1011.9 |
| 20260504023532 | 43 | 0 | 0.0 | 0.0 | 0.00 | 0.00 | 0.00 | 62 | 1011.9 |
| 20260504023043 | 43 | 0 | 0.0 | 0.0 | 0.00 | 0.00 | 0.00 | 62 | 1011.9 |
| 20260504022533 | 43 | 0 | 0.0 | 0.0 | 0.00 | 0.00 | 0.00 | 61 | 1011.9 |
| 20260504022031 | 43 | 0 | 0.0 | 0.0 | 0.00 | 0.00 | 0.00 | 60 | 1011.9 |
| 20260504021538 | 43 | 0 | 0.0 | 0.0 | 0.00 | 0.00 | 0.00 | 59 | 1011.8 |
| 20260504021032 | 44 | 0 | 0.0 | 0.0 | 0.00 | 0.00 | 0.00 | 56 | 1011.8 |
| 20260504020531 | 44 | 0 | 0.0 | 0.0 | 0.00 | 0.00 | 0.00 | 55 | 1011.8 |
| 20260504020046 | 44 | 0 | 0.0 | 0.0 | 0.00 | 0.00 | 0.00 | 54 | 1011.8 |
| 20260504015532 | 45 | 0 | 0.0 | 0.0 | 0.00 | 0.00 | 0.00 | 56 | 1011.8 |
| 20260504015031 | 45 | 0 | 0.0 | 0.0 | 0.00 | 0.00 | 0.00 | 55 | 1011.7 |
| 20260504014549 | 46 | 0 | 0.0 | 0.0 | 0.00 | 0.00 | 0.00 | 54 | 1011.7 |
| 20260504014032 | 46 | 0 | 0.0 | 0.0 | 0.00 | 0.00 | 0.00 | 55 | 1011.6 |
| 20260504013535 | 47 | 0 | 0.0 | 0.0 | 0.00 | 0.00 | 0.00 | 50 | 1011.5 |
| 20260504013048 | 48 | 0 | 0.0 | 0.0 | 0.00 | 0.00 | 0.00 | 49 | 1011.4 |
| 20260504012532 | 48 | 0 | 0.0 | 1.0 | 0.00 | 0.00 | 0.00 | 48 | 1011.3 |
| 20260504012032 | 49 | 0 | 0.0 | 1.0 | 0.00 | 0.00 | 0.00 | 47 | 1011.3 |
| 20260504011546 | 49 | 0 | 0.0 | 1.0 | 0.00 | 0.00 | 0.00 | 46 | 1011.3 |
| 20260504011032 | 50 | 0 | 0.0 | 1.0 | 0.00 | 0.00 | 0.00 | 45 | 1011.2 |
| 20260504010533 | 50 | 0 | 0.0 | 1.0 | 0.00 | 0.00 | 0.00 | 42 | 1011.1 |
| 20260504010041 | 50 | 0 | 0.0 | 1.0 | 0.00 | 0.00 | 0.00 | 43 | 1011.1 |
| 20260504005532 | 50 | 301 | 0.0 | 1.0 | 0.00 | 0.00 | 0.00 | 44 | 1011.0 |
| 20260504005034 | 50 | 301 | 0.0 | 1.0 | 0.00 | 0.00 | 0.00 | 44 | 1010.9 |
| 20260504004539 | 50 | 0 | 0.0 | 1.0 | 0.00 | 0.00 | 0.00 | 45 | 1010.8 |
| 20260504004031 | 50 | 301 | 0.0 | 1.0 | 0.00 | 0.00 | 0.00 | 43 | 1010.8 |
| 20260504003531 | 50 | 301 | 0.0 | 0.0 | 0.00 | 0.00 | 0.00 | 44 | 1010.7 |
| 20260504003037 | 50 | 0 | 0.0 | 0.0 | 0.00 | 0.00 | 0.00 | 44 | 1010.6 |
| 20260504002531 | 50 | 0 | 0.0 | 1.0 | 0.00 | 0.00 | 0.00 | 45 | 1010.6 |
| 20260504002030 | 50 | 0 | 0.0 | 1.0 | 0.00 | 0.00 | 0.00 | 44 | 1010.4 |
| 20260504001545 | 50 | 302 | 0.0 | 1.0 | 0.00 | 0.00 | 0.00 | 43 | 1010.5 |
| 20260504001033 | 50 | 302 | 0.0 | 1.0 | 0.00 | 0.00 | 0.00 | 44 | 1010.4 |
| 20260504000531 | 51 | 302 | 0.0 | 1.0 | 0.00 | 0.00 | 0.00 | 42 | 1010.3 |
| 20260504000047 | 51 | 0 | 0.0 | 0.0 | 0.00 | 0.00 | 0.00 | 40 | 1010.3 |
| 20260503235532 | 51 | 0 | 0.0 | 0.0 | 0.00 | 0.00 | 0.00 | 42 | 1010.2 |
| 20260503235032 | 52 | 0 | 0.0 | 0.0 | 0.00 | 0.00 | 0.00 | 40 | 1010.1 |
| 20260503234539 | 53 | 0 | 0.0 | 1.0 | 0.00 | 0.00 | 0.00 | 39 | 1010.1 |
| 20260503234034 | 53 | 0 | 0.0 | 5.0 | 0.00 | 0.00 | 0.00 | 39 | 1010.0 |
| 20260503233535 | 54 | 0 | 1.0 | 5.0 | 0.00 | 0.00 | 0.00 | 37 | 1010.0 |
| 20260503233037 | 54 | 0 | 0.0 | 2.0 | 0.00 | 0.00 | 0.00 | 35 | 1010.0 |
| 20260503232532 | 54 | 0 | 0.0 | 3.0 | 0.00 | 0.00 | 0.00 | 34 | 1009.9 |
| 20260503232032 | 55 | 287 | 1.0 | 3.0 | 0.00 | 0.00 | 0.00 | 35 | 1009.8 |
| 20260503231545 | 55 | 242 | 0.0 | 2.0 | 0.00 | 0.00 | 0.00 | 33 | 1009.9 |
| 20260503231032 | 56 | 0 | 0.0 | 2.0 | 0.00 | 0.00 | 0.00 | 34 | 1009.9 |
| 20260503230532 | 56 | 0 | 0.0 | 2.0 | 0.00 | 0.00 | 0.00 | 34 | 1009.9 |
| 20260503230059 | 57 | 259 | 0.0 | 4.0 | 0.00 | 0.00 | 0.00 | 33 | 1009.8 |
| 20260503225533 | 57 | 271 | 0.0 | 4.0 | 0.00 | 0.00 | 0.00 | 31 | 1009.8 |
| 20260503225032 | 58 | 323 | 1.0 | 4.0 | 0.00 | 0.00 | 0.00 | 31 | 1009.8 |
| 20260503224542 | 58 | 0 | 0.0 | 4.0 | 0.00 | 0.00 | 0.00 | 32 | 1009.7 |
| 20260503224033 | 57 | 278 | 0.0 | 4.0 | 0.00 | 0.00 | 0.00 | 32 | 1009.7 |
| 20260503223532 | 57 | 344 | 1.0 | 12.0 | 0.00 | 0.00 | 0.00 | 32 | 1009.7 |
| 20260503223039 | 57 | 290 | 2.0 | 12.0 | 0.00 | 0.00 | 0.00 | 31 | 1009.7 |
| 20260503222531 | 57 | 276 | 3.0 | 8.0 | 0.00 | 0.00 | 0.00 | 32 | 1009.7 |
| 20260503222035 | 58 | 143 | 1.0 | 5.0 | 0.00 | 0.00 | 0.00 | 32 | 1009.6 |
| 20260503221546 | 57 | 56 | 0.0 | 7.0 | 0.00 | 0.00 | 0.00 | 32 | 1009.6 |
| 20260503221030 | 57 | 288 | 2.0 | 7.0 | 0.00 | 0.00 | 0.00 | 31 | 1009.7 |
| 20260503220534 | 58 | 71 | 0.0 | 5.0 | 0.00 | 0.00 | 0.00 | 32 | 1009.6 |
| 20260503220044 | 58 | 128 | 0.0 | 6.0 | 0.00 | 0.00 | 0.00 | 34 | 1009.6 |
| 20260503215532 | 57 | 329 | 1.0 | 8.0 | 0.00 | 0.00 | 0.00 | 33 | 1009.7 |
| 20260503215032 | 57 | 11 | 2.0 | 8.0 | 0.00 | 0.00 | 0.00 | 32 | 1009.7 |
| 20260503214543 | 57 | 304 | 2.0 | 11.0 | 0.00 | 0.00 | 0.00 | 32 | 1009.7 |
| 20260503214032 | 57 | 322 | 1.0 | 11.0 | 0.00 | 0.00 | 0.00 | 32 | 1009.6 |
| 20260503213532 | 56 | 297 | 3.0 | 12.0 | 0.00 | 0.00 | 0.00 | 32 | 1009.8 |
| 20260503213049 | 56 | 302 | 2.0 | 12.0 | 0.00 | 0.00 | 0.00 | 33 | 1009.8 |
| 20260503212533 | 56 | 281 | 4.0 | 10.0 | 0.00 | 0.00 | 0.00 | 32 | 1009.7 |
| 20260503212032 | 57 | 272 | 1.0 | 12.0 | 0.00 | 0.00 | 0.00 | 32 | 1009.8 |
| 20260503211549 | 56 | 251 | 2.0 | 12.0 | 0.00 | 0.00 | 0.00 | 33 | 1009.7 |
| 20260503211032 | 56 | 325 | 5.0 | 12.0 | 0.00 | 0.00 | 0.00 | 32 | 1009.8 |
| 20260503210531 | 57 | 314 | 2.0 | 11.0 | 0.00 | 0.00 | 0.00 | 35 | 1009.7 |
| 20260503210045 | 56 | 358 | 4.0 | 11.0 | 0.00 | 0.00 | 0.00 | 33 | 1009.7 |
| 20260503205531 | 57 | 291 | 4.0 | 10.0 | 0.00 | 0.00 | 0.00 | 33 | 1009.7 |
| 20260503205031 | 57 | 322 | 1.0 | 6.0 | 0.00 | 0.00 | 0.00 | 35 | 1009.6 |
| 20260503204543 | 57 | 323 | 1.0 | 7.0 | 0.00 | 0.00 | 0.00 | 33 | 1009.6 |
| 20260503204036 | 56 | 282 | 2.0 | 13.0 | 0.00 | 0.00 | 0.00 | 35 | 1009.6 |
| 20260503203535 | 56 | 323 | 4.0 | 18.0 | 0.00 | 0.00 | 0.00 | 34 | 1009.6 |
| 20260503203049 | 55 | 25 | 4.0 | 18.0 | 0.00 | 0.00 | 0.00 | 36 | 1009.6 |
| 20260503202532 | 55 | 278 | 5.0 | 15.0 | 0.00 | 0.00 | 0.00 | 33 | 1009.6 |
| 20260503202033 | 55 | 9 | 4.0 | 15.0 | 0.00 | 0.00 | 0.00 | 34 | 1009.6 |
| 20260503201545 | 56 | 270 | 4.0 | 14.0 | 0.00 | 0.00 | 0.00 | 34 | 1009.5 |
| 20260503201031 | 56 | 9 | 3.0 | 14.0 | 0.00 | 0.00 | 0.00 | 34 | 1009.6 |
| 20260503200532 | 55 | 295 | 2.0 | 14.0 | 0.00 | 0.00 | 0.00 | 36 | 1009.6 |
| 20260503200055 | 54 | 18 | 5.0 | 19.0 | 0.00 | 0.00 | 0.00 | 34 | 1009.5 |
| 20260503195531 | 54 | 300 | 5.0 | 19.0 | 0.00 | 0.00 | 0.00 | 37 | 1009.5 |
| 20260503195031 | 54 | 295 | 5.0 | 14.0 | 0.00 | 0.00 | 0.00 | 35 | 1009.5 |
| 20260503194545 | 55 | 285 | 5.0 | 14.0 | 0.00 | 0.00 | 0.00 | 33 | 1009.6 |
| 20260503194032 | 55 | 176 | 2.0 | 14.0 | 0.00 | 0.00 | 0.00 | 36 | 1009.6 |
| 20260503193531 | 55 | 297 | 3.0 | 19.0 | 0.00 | 0.00 | 0.00 | 34 | 1009.5 |
| 20260503193055 | 54 | 5 | 5.0 | 19.0 | 0.00 | 0.00 | 0.00 | 35 | 1009.5 |
| 20260503192532 | 54 | 269 | 6.0 | 19.0 | 0.00 | 0.00 | 0.00 | 34 | 1009.5 |
| 20260503192033 | 55 | 297 | 5.0 | 14.0 | 0.00 | 0.00 | 0.00 | 33 | 1009.5 |
| 20260503191543 | 56 | 328 | 4.0 | 14.0 | 0.00 | 0.00 | 0.00 | 33 | 1009.5 |
| 20260503191031 | 57 | 48 | 3.0 | 8.0 | 0.00 | 0.00 | 0.00 | 34 | 1009.5 |
| 20260503190532 | 57 | 315 | 2.0 | 12.0 | 0.00 | 0.00 | 0.00 | 35 | 1009.4 |
| 20260503190044 | 56 | 320 | 3.0 | 13.0 | 0.00 | 0.00 | 0.00 | 36 | 1009.4 |
| 20260503185531 | 56 | 328 | 3.0 | 13.0 | 0.00 | 0.00 | 0.00 | 34 | 1009.4 |
| 20260503185032 | 56 | 298 | 2.0 | 14.0 | 0.00 | 0.00 | 0.00 | 34 | 1009.4 |
| 20260503184549 | 56 | 316 | 3.0 | 14.0 | 0.00 | 0.00 | 0.00 | 34 | 1009.3 |
| 20260503184031 | 56 | 51 | 3.0 | 16.0 | 0.00 | 0.00 | 0.00 | 34 | 1009.3 |
| 20260503183530 | 56 | 300 | 3.0 | 16.0 | 0.00 | 0.00 | 0.00 | 35 | 1009.4 |
| 20260503183043 | 56 | 319 | 7.0 | 16.0 | 0.00 | 0.00 | 0.00 | 31 | 1009.3 |
| 20260503182536 | 56 | 274 | 2.0 | 7.0 | 0.00 | 0.00 | 0.00 | 35 | 1009.4 |
| 20260503182032 | 55 | 311 | 4.0 | 7.0 | 0.00 | 0.00 | 0.00 | 33 | 1009.3 |
| 20260503181552 | 55 | 276 | 1.0 | 6.0 | 0.00 | 0.00 | 0.00 | 42 | 1009.4 |
| 20260503181032 | 55 | 356 | 1.0 | 7.0 | 0.00 | 0.00 | 0.00 | 36 | 1009.3 |
| 20260503180532 | 55 | 274 | 2.0 | 7.0 | 0.00 | 0.00 | 0.00 | 38 | 1009.4 |
| 20260503180049 | 54 | 311 | 3.0 | 7.0 | 0.00 | 0.00 | 0.00 | 40 | 1009.6 |
| 20260503175532 | 54 | 297 | 1.0 | 7.0 | 0.00 | 0.00 | 0.00 | 40 | 1009.7 |
| 20260503175031 | 53 | 297 | 2.0 | 8.0 | 0.00 | 0.00 | 0.00 | 40 | 1009.6 |
| 20260503174554 | 53 | 307 | 1.0 | 8.0 | 0.00 | 0.00 | 0.00 | 41 | 1009.7 |
| 20260503174031 | 52 | 311 | 3.0 | 12.0 | 0.00 | 0.00 | 0.00 | 40 | 1009.8 |
| 20260503173532 | 52 | 112 | 2.0 | 12.0 | 0.00 | 0.00 | 0.00 | 38 | 1009.6 |
| 20260503173055 | 53 | 4 | 3.0 | 10.0 | 0.00 | 0.00 | 0.00 | 37 | 1009.7 |
| 20260503172532 | 53 | 328 | 3.0 | 8.0 | 0.00 | 0.00 | 0.00 | 38 | 1009.8 |
| 20260503172034 | 53 | 276 | 2.0 | 12.0 | 0.00 | 0.00 | 0.00 | 38 | 1009.9 |
| 20260503171539 | 53 | 3 | 4.0 | 12.0 | 0.00 | 0.00 | 0.00 | 36 | 1009.8 |
| 20260503171033 | 53 | 170 | 3.0 | 16.0 | 0.00 | 0.00 | 0.00 | 38 | 1009.9 |
| 20260503170533 | 53 | 39 | 4.0 | 16.0 | 0.00 | 0.00 | 0.00 | 37 | 1009.8 |